格洛纳斯-797 COSMOS 2412 [GLONASS]

导读 | 星芒AI

COSMOS 2412 是俄罗斯 GLONASS 卫星导航系统的一部分,于 2011 年发射,用于提供全球定位和导航服务。该卫星运行在中地球轨道,设计寿命约 7 年,支持俄罗斯及国际用户的高精度定位需求。作为 GLONASS-M 系列卫星之一,COSMOS 2412 提高了系统的稳定性和覆盖范围,增强了 GLONASS 在全球卫星导航领域的竞争力。

基本信息
目录编号:
28510
目录名称:
COSMOS 2412 (GLONASS)
国际标识:
2004-053C
轨道中心:
EARTH
卫星名称:
格洛纳斯-797
卫星全名:
格洛纳斯-797 COSMOS 2412 [GLONASS]
卫星状态:
在轨 (已飞行7612 天)
发射日期:
2004-12-26 UTC
国别 :
俄罗斯(独联体) (CIS)
星等 :
--
轨道信息
数据来源 国际轨道数据 AOE轨道数据
星历时间 2025-10-28T17:23:07+0800
22小时前
查看轨道信息
2025-10-29T03:00:00+0800
12小时前
查看轨道信息
半长轴 25507.913km 25507.889km
偏心率 0.0007281 0.0007376
轨道倾角 64.066° 64.066°
近地点辐角 246.766° 247.090°
升交点赤经 68.497° 68.483°
平近点角 118.914° 65.933°
近地点 19111.205km 19110.939km
远地点 19148.351km 19148.569km
周期 675.728分钟 675.727分钟
每日圈数 2.131034 2.131037
详细信息
平衡模式:
三轴稳定
覆盖范围:
全球
运营商:
列舍特涅夫卫星信息系统
运营商所在国:
俄罗斯
制造商(研发单位):
列舍特涅夫卫星信息系统
制造商所在国:
俄罗斯
使用方式:
暂无
卫星简介
格洛纳斯(GLONASS )是苏联/俄罗斯研制卫星导航系统。标准配置为24颗卫星,其中18颗卫星就能保证该系统为俄罗斯境内用户提供全部服务。该卫星已退役。
2D轨道图
3D轨道图
轨道高度分析图
轨道倾角分析图
轨道综合分析图
查看轨道综合分析图